Home   Weather   Lafayette   Past weeks
Flag for USA

Past Weather in Lafayette, Indiana, USA — Yesterday and Last 2 Weeks

Now
84 °F

Sunny.


Feels Like: 93 °F
Forecast: 85 / 73 °F
Wind: 5 mph from Southwest

Location: Purdue University Airport

Current Time: Jul 21, 2019 at 11:09:29 am

Latest Report: Jul 21, 2019 at 9:54 am


Visibility: 10 mi

Pressure: 29.91 "Hg

Humidity: 77%

Dew Point: 76 °F

Location of LafayetteLocation

Past Weather in Lafayette — Graph

°F

Lafayette Temperature Yesterday

Maximum temperature yesterday: 92 °F (at 2:54 pm)
Minimum temperature yesterday: 76 °F (at 5:54 am)
Average temperature yesterday: 84 °F

High & Low Weather Summary for the Past Weeks

 TemperatureHumidityPressure
High94 °F (Jul 10, 2:54 pm)100% (Jul 11, 6:54 am)30.12 "Hg (Jul 11, 6:54 am)
Low57 °F (Jul 12, 6:54 am)37% (Jul 9, 2:54 pm)29.79 "Hg (Jul 18, 5:54 pm)
Average78 °F76%29.95 "Hg
* Reported Jul 6 8:54 am — Jul 21 8:54 am, Lafayette. Weather by CustomWeather, © 2019

Note: Actual official high and low records may vary slightly from our data, if they occured in-between our weather recording intervals... More about our weather records

Advertising

Lafayette Weather History for the Previous 24 Hours

Scroll right to see more
 ConditionsComfort  
Time TempWeatherWind HumidityBarometerVisibility
8:54 am
Sun, Jul 21
81 °FScattered clouds.7 mph82%29.90 "Hg10 mi
7:54 am78 °FSunny.No wind87%29.90 "Hg10 mi
6:54 am75 °FPartly sunny.No wind94%29.89 "Hg9 mi
5:54 am76 °FClear.No wind91%29.87 "Hg10 mi
4:54 am76 °FClear.No wind94%29.88 "Hg10 mi
3:54 am76 °FClear.No wind94%29.88 "Hg10 mi
2:54 am78 °FClear.No wind87%29.87 "Hg10 mi
1:54 am80 °FPassing clouds.5 mph85%29.88 "Hg10 mi
12:54 am81 °FClear.6 mph82%29.88 "Hg10 mi
11:54 pm
Sat, Jul 20
82 °FClear.3 mph79%29.88 "Hg10 mi
10:54 pm83 °FClear.3 mph77%29.89 "Hg10 mi
9:54 pm84 °FClear.5 mph77%29.85 "Hg10 mi
8:54 pm87 °FSunny.6 mph69%29.86 "Hg10 mi
7:54 pm88 °FPassing clouds.6 mph65%29.88 "Hg10 mi
6:54 pm91 °FSunny.9 mph60%29.88 "Hg10 mi
5:54 pm92 °FPassing clouds.10 mph56%29.88 "Hg10 mi
4:54 pm92 °FScattered clouds.12 mph60%29.87 "Hg10 mi
3:54 pm92 °FPassing clouds.9 mph58%29.88 "Hg10 mi
2:54 pm92 °FPassing clouds.13 mph62%29.88 "Hg10 mi
1:54 pm91 °FBroken clouds.14 mph64%29.88 "Hg10 mi
12:54 pm90 °FPassing clouds.10 mph68%29.88 "Hg10 mi
11:54 am87 °FPassing clouds.10 mph75%29.90 "Hg10 mi
Weather by CustomWeather, © 2019

See weather overview